| time (UTC) | temp F | wind direction | speed MPH | gust MPH | rain 1hr in | rain 24hr in | rain mn in | humidity % | barometer mb |
| 20260904091003 | 72 | 45 | 1.0 | 2.0 | 0.00 | 0.22 | 0.00 | 79 | 1002.5 |
| 20260904090004 | 72 | 45 | 1.0 | 2.0 | 0.00 | 0.22 | 0.00 | 79 | 1002.3 |
| 20260904085004 | 72 | 45 | 1.0 | 2.0 | 0.00 | 0.22 | 0.00 | 79 | 1002.4 |
| 20260904084003 | 72 | 45 | 1.0 | 2.0 | 0.00 | 0.22 | 0.00 | 79 | 1002.6 |
| 20260904083004 | 72 | 45 | 1.0 | 2.0 | 0.00 | 0.22 | 0.00 | 79 | 1002.3 |
| 20260904082003 | 72 | 45 | 1.0 | 2.0 | 0.00 | 0.22 | 0.00 | 79 | 1001.9 |
| 20260904081003 | 72 | 45 | 1.0 | 2.0 | 0.00 | 0.22 | 0.00 | 79 | 1002.4 |
| 20260904080003 | 72 | 45 | 1.0 | 2.0 | 0.00 | 0.22 | 0.00 | 79 | 1002.3 |
| 20260904075003 | 72 | 45 | 1.0 | 2.0 | 0.00 | 0.22 | 0.00 | 79 | 1001.8 |
| 20260904074003 | 72 | 45 | 1.0 | 2.0 | 0.00 | 0.22 | 0.00 | 79 | 1002.4 |
| 20260904073003 | 72 | 45 | 1.0 | 2.0 | 0.00 | 0.22 | 0.00 | 79 | 1002.0 |
| 20260904072003 | 72 | 45 | 1.0 | 2.0 | 0.00 | 0.22 | 0.00 | 79 | 1001.7 |
| 20260904071003 | 72 | 45 | 1.0 | 2.0 | 0.00 | 0.22 | 0.00 | 79 | 1002.2 |
| 20260904070003 | 72 | 45 | 1.0 | 2.0 | 0.00 | 0.22 | 0.00 | 79 | 1001.9 |
| 20260904065003 | 72 | 45 | 1.0 | 2.0 | 0.00 | 0.22 | 0.00 | 79 | 1001.9 |
| 20260904064003 | 72 | 45 | 1.0 | 2.0 | 0.00 | 0.22 | 0.00 | 79 | 1002.2 |
| 20260904063003 | 72 | 45 | 1.0 | 2.0 | 0.00 | 0.22 | 0.00 | 79 | 1001.9 |
| 20260904061004 | 72 | 45 | 1.0 | 2.0 | 0.00 | 0.22 | 0.00 | 79 | 1001.9 |
| 20260904060003 | 72 | 45 | 1.0 | 2.0 | 0.00 | 0.22 | 0.00 | 79 | 1001.5 |
| 20260904055003 | 72 | 45 | 1.0 | 2.0 | 0.00 | 0.22 | 0.00 | 79 | 1001.9 |
| 20260904054003 | 72 | 45 | 1.0 | 2.0 | 0.00 | 0.22 | 0.00 | 79 | 1001.3 |
| 20260904053003 | 72 | 45 | 1.0 | 2.0 | 0.00 | 0.22 | 0.00 | 79 | 1001.1 |
| 20260904051003 | 72 | 45 | 1.0 | 2.0 | 0.00 | 0.22 | 0.00 | 79 | 1000.9 |
| 20260904050003 | 72 | 45 | 1.0 | 2.0 | 0.00 | 0.22 | 0.00 | 79 | 1001.3 |
| 20260904045003 | 72 | 45 | 1.0 | 2.0 | 0.00 | 0.22 | 0.00 | 79 | 1000.6 |
| 20260904044003 | 72 | 45 | 1.0 | 2.0 | 0.00 | 0.22 | 0.00 | 79 | 1000.4 |
| 20260904043003 | 72 | 45 | 1.0 | 2.0 | 0.00 | 0.22 | 0.00 | 79 | 1000.5 |
| 20260904042003 | 72 | 45 | 1.0 | 2.0 | 0.00 | 0.22 | 0.00 | 79 | 1000.2 |
| 20260904041003 | 72 | 45 | 1.0 | 2.0 | 0.00 | 0.22 | 0.00 | 79 | 1000.3 |
| 20260904040003 | 72 | 45 | 1.0 | 2.0 | 0.00 | 0.22 | 0.00 | 79 | 999.5 |
| 20260904035003 | 72 | 45 | 1.0 | 2.0 | 0.00 | 0.22 | 0.22 | 79 | 999.9 |
| 20260904034003 | 72 | 45 | 1.0 | 2.0 | 0.00 | 0.22 | 0.22 | 79 | 999.0 |
| 20260904032003 | 72 | 45 | 1.0 | 2.0 | 0.00 | 0.22 | 0.22 | 79 | 998.6 |
| 20260904031003 | 72 | 45 | 1.0 | 2.0 | 0.00 | 0.22 | 0.22 | 79 | 998.8 |
| 20260904030004 | 72 | 45 | 1.0 | 2.0 | 0.00 | 0.22 | 0.22 | 79 | 998.0 |
| 20260904025003 | 72 | 45 | 1.0 | 2.0 | 0.00 | 0.22 | 0.22 | 79 | 998.3 |
| 20260904024003 | 72 | 45 | 1.0 | 2.0 | 0.00 | 0.22 | 0.22 | 79 | 997.4 |
| 20260904023004 | 72 | 45 | 1.0 | 2.0 | 0.00 | 0.22 | 0.22 | 79 | 997.6 |
| 20260904022004 | 72 | 45 | 1.0 | 2.0 | 0.00 | 0.22 | 0.22 | 79 | 997.2 |
| 20260904021003 | 72 | 45 | 1.0 | 2.0 | 0.00 | 0.22 | 0.22 | 79 | 997.2 |
| 20260904020003 | 72 | 45 | 1.0 | 2.0 | 0.00 | 0.22 | 0.22 | 79 | 997.3 |
| 20260904013003 | 72 | 45 | 1.0 | 2.0 | 0.00 | 0.22 | 0.22 | 79 | 997.7 |
| 20260904011003 | 72 | 45 | 1.0 | 2.0 | 0.00 | 0.22 | 0.22 | 79 | 997.9 |
| 20260904010003 | 72 | 45 | 1.0 | 2.0 | 0.00 | 0.22 | 0.22 | 79 | 997.1 |
| 20260904005004 | 72 | 45 | 1.0 | 2.0 | 0.00 | 0.22 | 0.22 | 79 | 1006.0 |
| 20260904004004 | 72 | 45 | 1.0 | 2.0 | 0.00 | 0.22 | 0.22 | 79 | 997.1 |
| 20260904003003 | 72 | 45 | 1.0 | 2.0 | 0.00 | 0.22 | 0.22 | 79 | 997.5 |
| 20260904001003 | 72 | 45 | 1.0 | 2.0 | 0.00 | 0.22 | 0.22 | 79 | 998.4 |
| 20260903235003 | 72 | 45 | 1.0 | 2.0 | 0.00 | 0.22 | 0.22 | 79 | 1000.1 |
| 20260903234003 | 72 | 45 | 1.0 | 2.0 | 0.00 | 0.22 | 0.22 | 79 | 1001.1 |
| 20260903233004 | 72 | 45 | 1.0 | 2.0 | 0.00 | 0.22 | 0.22 | 79 | 1002.4 |
| 20260903231004 | 72 | 45 | 1.0 | 2.0 | 0.00 | 0.22 | 0.22 | 79 | 1003.2 |
| 20260903230003 | 72 | 45 | 1.0 | 2.0 | 0.00 | 0.22 | 0.22 | 79 | 1001.3 |
| 20260903225004 | 72 | 45 | 1.0 | 2.0 | 0.00 | 0.22 | 0.22 | 79 | 999.8 |
| 20260903223003 | 72 | 45 | 1.0 | 2.0 | 0.00 | 0.22 | 0.22 | 79 | 1000.1 |
| 20260903221003 | 72 | 45 | 1.0 | 2.0 | 0.00 | 0.22 | 0.22 | 79 | 1001.1 |
| 20260903214003 | 72 | 45 | 1.0 | 2.0 | 0.18 | 0.22 | 0.22 | 79 | 1003.1 |
| 20260903212004 | 72 | 45 | 1.0 | 2.0 | 0.18 | 0.22 | 0.22 | 79 | 1005.2 |
| 20260903211003 | 72 | 45 | 1.0 | 2.0 | 0.18 | 0.22 | 0.22 | 79 | 1006.6 |
| 20260903210004 | 72 | 45 | 1.0 | 2.0 | 0.18 | 0.22 | 0.22 | 79 | 1008.5 |
| 20260903205000 | 72 | 158 | 2.0 | 2.0 | 0.18 | 0.22 | 0.22 | 79 | 1009.3 |
| 20260903204000 | 80 | 225 | 11.0 | 11.0 | 0.00 | 0.05 | 0.05 | 52 | 1008.8 |
| 20260903203001 | 80 | 225 | 11.0 | 11.0 | 0.00 | 0.05 | 0.05 | 52 | 1009.3 |
| 20260903202000 | 80 | 225 | 11.0 | 11.0 | 0.00 | 0.05 | 0.05 | 52 | 1008.8 |
| 20260903201001 | 80 | 225 | 11.0 | 11.0 | 0.01 | 0.05 | 0.05 | 52 | 1000.6 |
| 20260903200001 | 80 | 225 | 11.0 | 11.0 | 0.05 | 0.05 | 0.05 | 52 | 1009.3 |
| 20260903195000 | 80 | 225 | 11.0 | 11.0 | 0.05 | 0.05 | 0.05 | 52 | 1000.7 |
| 20260903194001 | 80 | 225 | 11.0 | 11.0 | 0.05 | 0.05 | 0.05 | 52 | 1009.0 |
| 20260903193000 | 80 | 225 | 11.0 | 11.0 | 0.05 | 0.05 | 0.05 | 52 | 1000.0 |
| 20260903192000 | 80 | 225 | 10.0 | 12.0 | 0.05 | 0.05 | 0.05 | 52 | 999.7 |
| 20260903190000 | 76 | 1 | 4.0 | 4.0 | 0.00 | 0.00 | 0.00 | 72 | 999.7 |
| 20260903185001 | 76 | 1 | 4.0 | 4.0 | 0.00 | 0.00 | 0.00 | 72 | 1000.8 |
| 20260903184000 | 76 | 1 | 4.0 | 4.0 | 0.00 | 0.00 | 0.00 | 72 | 1000.2 |
| 20260903183000 | 76 | 1 | 4.0 | 4.0 | 0.00 | 0.00 | 0.00 | 72 | 1000.9 |
| 20260903182001 | 76 | 1 | 4.0 | 4.0 | 0.00 | 0.00 | 0.00 | 72 | 1000.7 |
| 20260903181001 | 76 | 1 | 4.0 | 4.0 | 0.00 | 0.00 | 0.00 | 72 | 1001.3 |
| 20260903180000 | 76 | 1 | 4.0 | 4.0 | 0.00 | 0.00 | 0.00 | 72 | 1001.0 |
| 20260903175000 | 76 | 1 | 4.0 | 4.0 | 0.00 | 0.00 | 0.00 | 72 | 1001.4 |
| 20260903174001 | 76 | 1 | 4.0 | 4.0 | 0.00 | 0.00 | 0.00 | 72 | 1000.9 |
| 20260903173000 | 76 | 1 | 4.0 | 4.0 | 0.00 | 0.00 | 0.00 | 72 | 1001.4 |
| 20260903172000 | 76 | 1 | 4.0 | 4.0 | 0.00 | 0.00 | 0.00 | 72 | 1000.8 |
| 20260903170001 | 76 | 1 | 4.0 | 4.0 | 0.00 | 0.00 | 0.00 | 72 | 1000.9 |
| 20260903164001 | 76 | 1 | 4.0 | 4.0 | 0.00 | 0.00 | 0.00 | 72 | 1001.0 |
| 20260903163001 | 76 | 1 | 4.0 | 4.0 | 0.00 | 0.00 | 0.00 | 72 | 1000.9 |
| 20260903162000 | 76 | 1 | 4.0 | 4.0 | 0.00 | 0.00 | 0.00 | 72 | 1001.2 |
| 20260903161001 | 76 | 1 | 4.0 | 4.0 | 0.00 | 0.00 | 0.00 | 72 | 1000.8 |
| 20260903160000 | 76 | 1 | 4.0 | 4.0 | 0.00 | 0.00 | 0.00 | 72 | 1000.7 |
| 20260903155001 | 76 | 1 | 4.0 | 4.0 | 0.00 | 0.00 | 0.00 | 72 | 1001.3 |
| 20260903154001 | 76 | 1 | 4.0 | 4.0 | 0.00 | 0.00 | 0.00 | 72 | 1001.0 |
| 20260903153000 | 76 | 1 | 4.0 | 4.0 | 0.00 | 0.00 | 0.00 | 72 | 1000.8 |
| 20260903152001 | 76 | 1 | 4.0 | 4.0 | 0.00 | 0.00 | 0.00 | 72 | 1000.4 |
| 20260903151001 | 76 | 1 | 4.0 | 4.0 | 0.00 | 0.00 | 0.00 | 72 | 1000.0 |
| 20260903150001 | 76 | 1 | 4.0 | 4.0 | 0.00 | 0.00 | 0.00 | 72 | 1009.0 |
| 20260903145001 | 76 | 1 | 4.0 | 4.0 | 0.00 | 0.00 | 0.00 | 72 | 1008.8 |
| 20260903144000 | 76 | 1 | 4.0 | 4.0 | 0.00 | 0.00 | 0.00 | 72 | 1008.7 |
| 20260903142001 | 76 | 1 | 4.0 | 4.0 | 0.00 | 0.00 | 0.00 | 72 | 1008.3 |
| 20260903141001 | 76 | 1 | 4.0 | 4.0 | 0.00 | 0.00 | 0.00 | 72 | 1008.0 |
| 20260903140000 | 85 | 0 | 0.0 | 0.0 | 0.00 | 0.00 | 0.00 | 47 | 1007.8 |
| 20260903135001 | 85 | 0 | 0.0 | 0.0 | 0.00 | 0.00 | 0.00 | 47 | 1007.6 |
| 20260903134001 | 85 | 0 | 0.0 | 0.0 | 0.00 | 0.00 | 0.00 | 47 | 1007.4 |
| 20260903133001 | 85 | 0 | 0.0 | 0.0 | 0.00 | 0.00 | 0.00 | 47 | 1007.0 |
| 20260903131000 | 85 | 0 | 0.0 | 0.0 | 0.00 | 0.00 | 0.00 | 47 | 1006.8 |
| 20260903130001 | 85 | 0 | 0.0 | 0.0 | 0.00 | 0.00 | 0.00 | 47 | 1006.6 |
| 20260903125001 | 85 | 0 | 0.0 | 0.0 | 0.00 | 0.00 | 0.00 | 47 | 1006.1 |
| 20260903122001 | 85 | 0 | 0.0 | 0.0 | 0.00 | 0.00 | 0.00 | 47 | 1005.0 |
| 20260903120002 | 85 | 0 | 0.0 | 0.0 | 0.00 | 0.00 | 0.00 | 47 | 1003.9 |
| 20260903115000 | 85 | 0 | 0.0 | 0.0 | 0.00 | 0.00 | 0.00 | 47 | 1003.3 |
| 20260903114001 | 85 | 0 | 0.0 | 0.0 | 0.00 | 0.00 | 0.00 | 47 | 1003.7 |
| 20260903113001 | 85 | 0 | 0.0 | 0.0 | 0.00 | 0.00 | 0.00 | 47 | 1003.4 |
| 20260903112000 | 85 | 0 | 0.0 | 0.0 | 0.00 | 0.00 | 0.00 | 47 | 1003.5 |
| 20260903111001 | 85 | 0 | 0.0 | 0.0 | 0.00 | 0.00 | 0.00 | 47 | 1003.4 |
| 20260903110001 | 85 | 0 | 0.0 | 0.0 | 0.00 | 0.00 | 0.00 | 47 | 1002.8 |
| 20260903105000 | 85 | 0 | 0.0 | 0.0 | 0.00 | 0.00 | 0.00 | 47 | 1002.0 |
| 20260903104001 | 85 | 0 | 0.0 | 0.0 | 0.00 | 0.00 | 0.00 | 47 | 1001.1 |
| 20260903102001 | 85 | 0 | 0.0 | 0.0 | 0.00 | 0.00 | 0.00 | 47 | 1001.0 |
| 20260903101001 | 85 | 0 | 0.0 | 0.0 | 0.00 | 0.00 | 0.00 | 47 | 1000.3 |
| 20260903100001 | 85 | 0 | 0.0 | 0.0 | 0.00 | 0.00 | 0.00 | 47 | 1000.9 |
| 20260903094001 | 85 | 0 | 0.0 | 0.0 | 0.00 | 0.00 | 0.00 | 47 | 1000.7 |
| 20260903093001 | 85 | 0 | 0.0 | 0.0 | 0.00 | 0.00 | 0.00 | 47 | 1000.1 |
| 20260903092001 | 85 | 0 | 0.0 | 0.0 | 0.00 | 0.00 | 0.00 | 47 | 1000.4 |